map of YBB home
YBB - Airport
Location
City:  Kugaaruk, Kitikmeot, Nunavut, Canada
Near (Alt.):Pelly Bay
Name:Kugaaruk Airport
ICAO:CYBB
IATA:YBB

Details
Type:Airport (Airfield)
Use:Public/Civil
Latitude:6832'09"N (68.535833)
Longitude:8948'19"W (-89.805277)
Elevation:51 ft (16 m)
Variation:16.91W (WMM2015 magnetic declination)
0.38 annual change
Runways:1
Longest:5000 ft (1524 m)

Time
Time Zone:UTC-6 (DST-5)
Local Time:

Weather
METAR:CYBB 232300Z 24003KT 15SM FEW030 SCT100 BKN200 15/06 A2994 RMK SC2AC2CI2 15.3/8.5/0.0/LAST STFD OBS/NXT 241200 UTC SLP140 DENSITY ALT 100FT
TAF:CYBB 231838Z 2319/2323 VRB03KT P6SM BKN030
RMK NXT FCST WILL BE ISSUED AT 241345Z

Related Locations
Nearby:
Farthest:YWKS: 11859 mi / 19085 km
Wilkins Runway (Casey), Upper Peterson Glacier, AQ

Find:

   beyond  
but within

Other Information
Maps:
NOTAMs:
Links:
Sources:

  
flag of Canada
flag of Nunavut
  

Airport Diagram

Airport diagram for YBB

Airport diagram PDF

Sectional Chart

Flight Planning
at skyvector.com

Satellite Image

Google Maps Satellite view

 

Copyright © 2004-2017 Karl L. Swartz. All rights reserved.
The Great Circle Mapper name and logo are trademarks of the Great Circle Mapper.
All other trademarks mentioned herein belong to their respective owners.
Please see credits for attibutions and further copyright information.

  Follow gcmap on Facebook Follow gcmap on Twitter Follow gcmap on Google+ GCmap on LinkedIn

hCard Microformat

Geo Microformat